Location: Boleita
(10.4833°N, 66.8167°W)
Time: 02:20:55
(UTC+00:00)

CZ-4C R/B - Pass Details

Date: 08 November 2025
Orbit: 487 x 1492 km, 63.4° (Epoch: 08 December)

Event Time Altitude Azimuth Distance (km) Brightness Sun altitude
Exits shadow 07:28:39 60° 93° (E) 1,657 3.7 -41.7°
Drops below altitude 10° 07:36:50 10° 145° (SE) 3,615 5.9 -39.7°
Sets 07:39:50 0° 148° (SSE) 4,553 6.5 -39.0°
